Simultaneous Nadir Overpasses (SNOs) Predictions

Prediction of SNOs between AURA and NPP Satellite Orbit:

Table of predicted SNOs for the next 14.0 days since TLE Epoch: 11/26/2016
Index Date (AURA) Time (AURA) Lat,Lon (AURA) SZA (AURA ) Date (NPP) Time (NPP) Lat,Lon (NPP) SZA (NPP ) Distance(km) Time Diff (sec)
1 11/27/2016 02:51:41 -79.50,-146.19 67.34 11/27/2016 02:51:28 -79.50,-146.22 67.32 0.65 13
2 11/27/2016 03:41:00 79.75, 23.30 112.32 11/27/2016 03:42:04 79.76, 23.36 112.27 1.19 64
3 11/29/2016 18:18:47 79.37, 161.15 113.33 11/29/2016 18:17:41 79.37, 161.20 113.38 0.98 66
4 11/29/2016 19:08:09 -79.57, -29.83 66.94 11/29/2016 19:08:21 -79.56, -29.92 66.93 1.92 12
5 12/02/2016 10:35:15 79.43, -82.57 113.70 12/02/2016 10:34:34 79.43, -82.54 113.73 0.61 41
6 12/02/2016 11:24:37 -79.63, 86.47 66.57 12/02/2016 11:25:14 -79.62, 86.36 66.58 2.27 37
7 12/05/2016 02:51:41 79.55, 34.19 113.93 12/05/2016 02:51:25 79.55, 34.25 113.93 1.17 16
8 12/05/2016 03:41:04 -79.71,-157.00 66.29 12/05/2016 03:42:06 -79.71,-157.09 66.32 1.69 62
9 12/07/2016 18:18:49 -79.34, -19.01 65.44 12/07/2016 18:17:41 -79.35, -18.98 65.39 0.85 68




NCC Satellite Simultaneous Nadir Overpasses (SNOs) Prediction Service
